COSMOS 2251 DEB, 37530

Orbit data source: Space-Track

COSMOS 2251 DEB, 37530 is space debris in LEO originally from a launch on Wed, 16 Jun 1993 UTC launched from the Plesetsk Missile And Space Complex (PKMTR). The debris from Iridium 33, an American commercial communications satellite, has been tracked extensively since its accidental collision with the defunct Russian satellite Cosmos 2251 in 2009. This event, occurring at high speed in low Earth orbit (LEO), generated thousands of pieces of space debris, significantly increasing the risk of further collisions. The Iridium 33 debris cloud has impacted space traffic management and orbital debris mitigation strategies, making it a subject of ongoing study in space situational awareness.

Loading next visibility...
Identifier
37530, 1993-036BNK
Orbit
LEO
Country
Flag of CISCIS
Related business
Manufacturer
Unknown
Mission
Spacecraft
Bus & Motor
Unknown
Mass
Unknown
Launch date (UTC)
1993-06-16 (33 years ago)
Launch vehicle
Unknown
Launch site
Plesetsk Missile And Space Complex (PKMTR)
Object type
Payload
Rocket body
Debris
Shape & HBR
Unknown shape, 0.1 m
Radar Cross Section
Medium (>0.1 m² and <1 m²)

Expand to show TLE details & history
Last TLE update: 20 hours ago

TLE from 20 hours ago
0 COSMOS 2251 DEB
1 37530U 93036BNK 26257.08559994  .00000283  00000-0  10846-3 0  9995
2 37530  74.0365 189.2409 0027128 190.1388 182.4450 14.34790175891810
Epoch: 2026-09-14T02:03Z
TLE epoch observation values (Epoch: 2026-09-14T02:03:15.834Z)
Latitude
12.04178°
Longitude
168.8338°
Altitude
797.006 km
Speed
7.446 km/s
True Right ascension
12h 50m 52s
True Declination
11° 58' 20"
Sunlit
Object was in daylight at epoch
Visualization orbit readout
Latitude
Unknown
Longitude
Unknown
Altitude
Unknown
Speed
Unknown
Apparent Right ascension
Unknown
Apparent Declination
Unknown
Sunlit
N/A
Visualization observer readout
Local Sidereal Time
14:19:03
Azimuth
Unknown
Elevation
Unknown
Doppler factor
Unknown
Orbital elements
Apogee altitude
792.79 km
Perigee altitude
753.988 km
Semi-major axis
7,151.526 km
Eccentricity
0.00271
Inclination
74.0365°
RAAN
189.2409°
Arg. of periapsis
190.1388°
True anomaly
182.43178°
Mean anomaly
182.445°
Eccentric anomaly
182.43839°
Mean motion
3.58877 °/min
Orbital period
100.31 mins
BSTAR
0.00010846
Loading maneuver chart data...
Computing Atmospheric mass density...

Documentation

Showing up to 5 results
|